Location: College Rock
(37.2713°N, 119.1740°W)
Time: 13:18:46
(UTC+00:00)

FENGYUN 3A - Pass Details

Date: 29 October 2020
Orbit: 824 x 836 km, 98.4° (Epoch: 01 December)

Event Time Altitude Azimuth Distance (km) Brightness Sun altitude
Rises 12:34:23 0° 12° (NNE) 3,392 7.0 -21.3°
Reaches altitude 10° 12:36:45 10° 11° (NNE) 2,454 6.2 -20.8°
Maximum altitude 12:42:13 84° 284° (WNW) 844 3.6 -19.7°
Drops below altitude 10° 12:47:37 10° 197° (SSW) 2,436 6.0 -18.7°
Sets 12:49:58 0° 196° (SSW) 3,365 6.7 -18.2°
